Temperature
29 29 29 29 29 28 27 27 26 26 26 26 25 24 23 22 21 20 19 18 17 15 15 14 13 12 12 11 11 10 10 9 9 9 8 8 8 8 8 8 8 8 7 7
28 29 29 28 29 28 28 27 27 26 26 26 25 24 23 22 21 20 18 17 16 15 14 13 13 12 12 11 11 10 10 9 9 8 8 8 8 8 8 7 7 7 7 7
26 28 28 27 28 28 28 28 27 26 26 25 24 23 22 21 20 19 18 17 16 15 14 13 13 12 12 11 10 10 9 9 9 8 8 8 8 8 7 7 7 7 7 7
26 27 25 27 29 28 27 27 27 26 26 25 24 23 21 20 19 18 17 16 15 14 13 13 12 12 11 11 10 10 9 9 8 8 8 8 7 7 7 7 7 7 7 7
26 26 26 28 28 28 26 26 27 26 25 24 23 22 21 18 18 17 16 15 14 13 13 12 12 11 11 10 10 9 9 8 8 8 7 7 7 7 7 7 7 7 7 7
26 25 25 27 28 27 26 25 25 25 24 23 23 22 22 19 18 17 15 15 14 13 13 12 12 11 10 10 9 9 8 8 8 8 7 7 7 7 7 7 7 7 7 7
25 25 26 28 27 27 25 24 24 24 23 23 22 21 19 19 17 16 15 14 14 13 12 12 11 10 10 9 9 8 8 8 8 8 8 8 8 8 8 7 7 7 7 7
26 25 25 27 27 26 25 25 24 24 23 22 21 20 19 18 17 16 15 14 13 13 12 11 11 10 9 9 8 8 8 8 8 8 8 8 8 8 8 8 7 7 7 7
27 26 26 26 26 26 25 25 24 23 23 22 21 20 19 18 17 16 15 14 13 12 12 11 11 10 9 9 8 8 8 8 8 8 8 8 8 8 8 8 7 7 7 7
26 27 27 27 27 26 25 24 24 23 22 21 20 19 18 17 16 15 14 13 13 12 11 11 10 10 9 8 8 8 7 7 7 8 8 8 8 8 8 8 7 7 6 6
26 27 27 27 26 26 25 24 23 23 22 21 20 19 18 17 16 15 14 13 12 12 11 11 10 9 9 8 8 8 7 7 7 8 8 8 8 8 8 8 7 7 6 6
27 27 27 26 26 26 25 24 23 22 22 21 20 19 18 17 15 14 14 13 12 11 11 10 9 9 8 8 8 7 7 7 7 8 8 8 8 8 8 8 8 7 7 6
27 27 27 26 26 26 25 24 23 22 21 20 19 18 17 16 15 14 14 13 12 11 10 10 9 9 8 8 8 7 7 7 8 8 8 8 8 8 8 8 8 7 7 7
27 26 26 26 25 25 25 24 24 23 21 20 19 18 17 16 15 14 13 13 12 11 10 10 9 8 8 8 8 8 8 8 8 8 8 8 9 9 8 8 8 7 7 7
26 26 26 26 25 25 24 24 23 22 21 20 19 18 17 16 15 14 13 12 12 11 10 9 9 8 8 8 8 8 8 8 8 8 8 9 9 9 9 8 8 8 7 7
25 26 26 25 25 24 24 24 23 22 22 21 20 18 17 16 15 14 13 12 11 11 10 9 8 8 8 8 8 8 8 8 8 8 8 9 9 9 9 8 8 8 8 7
25 25 25 25 24 24 24 23 23 22 22 21 20 18 17 15 14 14 13 12 11 10 10 9 8 8 8 7 7 8 8 8 8 8 9 9 9 9 9 8 8 8 8 8
23 23 23 23 23 23 23 23 23 22 21 20 19 18 16 15 14 13 12 11 11 10 10 9 9 9 8 7 7 8 8 8 8 8 8 9 9 9 9 9 9 8 8 8
21 21 22 22 22 22 22 22 22 22 21 19 18 17 16 14 14 13 12 11 11 11 10 9 9 8 7 7 8 8 8 8 8 8 8 9 9 9 9 9 9 9 8 8
19 19 20 20 21 21 21 21 21 20 19 18 17 16 15 14 13 13 12 11 11 11 10 9 9 8 7 8 8 8 7 8 8 8 8 9 9 9 9 9 9 9 9 8
17 17 18 18 18 19 19 19 19 19 18 17 16 15 14 14 13 13 12 12 11 11 10 9 8 8 8 8 8 8 7 8 8 8 8 8 9 9 9 9 9 9 9 9
16 16 16 16 17 17 17 18 18 18 17 16 16 15 14 14 13 13 12 12 11 11 10 9 8 8 8 8 8 7 7 7 8 8 8 8 9 9 9 9 9 9 9 9
14 15 15 15 15 16 16 17 17 17 16 16 15 14 14 14 13 13 13 12 11 11 10 9 8 8 8 8 7 7 7 7 7 8 8 8 8 9 9 9 9 10 9 9
13 14 14 14 15 15 15 16 16 16 16 16 15 15 14 13 13 13 12 12 11 11 9 9 8 8 7 7 7 7 7 7 7 7 8 8 8 9 9 9 9 10 10 10
13 13 13 14 14 15 15 16 16 16 16 16 15 15 14 13 13 13 12 11 11 10 9 8 8 7 6 6 6 6 7 7 7 7 7 8 8 8 9 9 9 10 10 10
13 13 13 13 13 14 14 15 15 15 16 16 15 15 14 13 13 12 11 11 10 10 9 8 7 7 6 6 6 6 6 6 7 7 7 7 8 8 8 9 9 10 10 10
13 13 13 13 14 14 14 14 14 14 14 14 14 14 14 13 12 12 11 10 10 9 8 8 7 6 6 5 5 5 5 6 6 7 7 7 7 8 8 8 9 9 9 9
Wind_Speed
11 9 8 8 9 7 7 8 9 10 11 10 11 10 10 9 10 10 9 10 11 10 9 9 9 9 10 11 11 11 12 12 11 11 11 11 11 11 12 12 14 12 12 12
13 12 10 10 10 8 6 7 9 10 10 10 11 11 11 11 10 9 9 11 12 12 12 11 10 10 10 10 10 10 11 12 12 12 12 12 12 12 12 12 12 12 13 13
13 12 12 10 6 3 5 8 8 10 9 10 11 11 11 10 8 8 10 12 12 13 11 10 10 9 10 10 11 11 11 12 12 12 13 13 15 14 14 13 13 12 13 13
12 14 14 8 1 2 3 5 7 8 6 9 10 9 8 8 8 9 10 12 12 13 13 12 12 11 10 12 11 12 12 13 13 13 15 14 14 14 14 12 12 12 13 13
10 13 12 5 3 2 2 8 7 4 7 10 11 11 6 8 7 8 9 10 11 12 13 12 12 11 12 13 12 13 14 13 14 15 15 15 15 15 13 12 12 12 12 12
10 14 16 14 5 6 3 3 8 6 8 10 10 9 6 9 9 9 10 10 11 12 12 11 11 11 12 13 13 14 14 15 15 15 15 16 15 14 12 11 12 12 12 11
13 15 10 6 8 2 6 3 3 6 7 8 7 6 8 9 8 8 9 10 11 11 11 11 10 10 12 12 13 13 14 15 16 15 15 15 13 11 11 11 11 11 12 10
11 12 5 5 1 5 4 2 4 5 6 6 6 7 7 8 8 8 10 11 11 10 10 10 10 10 12 12 12 13 15 16 16 16 15 14 12 12 11 10 10 10 9 9
6 7 1 3 6 4 3 3 4 5 6 5 6 7 7 7 7 8 9 10 11 11 11 10 10 10 12 12 13 14 15 16 16 16 14 12 11 11 10 9 8 8 7 7
7 9 9 9 9 5 4 4 4 4 4 5 6 7 7 7 7 8 8 10 10 12 12 11 11 11 11 11 12 14 15 16 15 14 14 11 9 9 8 8 7 8 8 7
13 12 11 11 8 6 5 5 5 5 5 5 5 6 6 6 6 7 8 9 10 10 11 12 11 11 11 11 12 14 15 15 15 14 12 11 9 8 8 5 4 5 7 7
11 9 7 8 9 8 7 7 7 7 6 5 5 5 5 6 6 7 8 8 9 11 12 12 12 11 10 11 11 13 13 14 12 12 11 10 9 8 4 4 3 3 4 5
12 12 11 10 9 7 7 8 9 7 7 6 5 4 5 5 6 7 8 9 10 11 12 12 11 11 11 11 12 13 13 13 12 12 11 10 9 8 7 3 5 5 5 5
12 10 10 10 11 10 9 10 9 8 7 7 6 5 5 5 6 7 8 9 10 11 11 11 11 11 11 11 12 13 14 13 12 11 11 9 8 7 6 6 5 2 4 6
12 10 10 10 10 11 11 10 9 9 9 8 8 6 5 5 6 7 7 8 9 10 11 11 11 11 11 12 13 14 13 11 11 11 11 9 8 7 6 6 5 4 1 3
14 13 11 10 10 11 12 11 11 10 10 9 7 5 4 4 5 6 7 7 9 10 10 10 10 10 11 12 12 12 11 13 13 11 10 9 8 7 6 5 5 5 3 2
11 11 11 11 10 11 11 11 11 11 10 8 6 5 4 4 5 6 6 7 8 9 9 7 9 11 11 11 11 10 11 12 14 11 9 8 8 7 5 5 5 4 4 3
10 11 12 12 12 12 12 12 10 10 9 7 5 5 5 5 5 6 6 7 8 9 6 6 8 10 11 9 10 10 10 10 10 10 9 8 8 7 5 4 5 5 4 2
11 12 13 13 13 12 11 11 9 7 5 4 4 4 4 5 5 5 5 7 9 8 5 8 8 9 9 9 10 9 9 10 10 10 9 9 7 6 5 5 4 4 3 4
13 14 14 15 15 13 9 8 6 2 2 3 4 4 5 6 5 5 6 7 6 3 5 7 8 8 8 10 11 9 9 9 10 10 9 8 7 6 6 6 5 4 4 4
15 15 16 16 15 14 12 9 6 3 3 5 6 6 6 6 6 6 6 7 1 3 4 8 5 5 8 10 12 8 8 9 9 8 9 8 7 6 5 6 5 3 3 4
14 14 15 15 15 15 13 11 8 6 6 7 8 9 9 8 8 7 8 6 2 4 3 6 4 6 9 12 8 8 8 8 8 8 8 8 8 7 6 5 5 4 4 3
14 14 15 15 15 15 15 14 12 9 9 10 11 11 12 9 7 6 6 3 4 4 2 2 3 6 11 9 6 7 8 8 8 8 8 8 8 7 6 6 5 4 3 3
16 16 16 16 17 17 16 16 15 10 10 10 13 12 11 10 8 8 6 6 7 4 1 4 2 5 10 6 5 6 7 8 8 9 9 8 8 7 6 6 5 5 4 5
17 18 18 18 17 16 14 14 14 12 14 12 13 13 13 11 10 7 4 9 11 6 3 7 8 7 6 5 5 6 6 7 8 9 9 8 8 7 7 7 5 5 4 4
16 16 15 15 15 14 15 15 14 13 12 12 12 10 10 9 9 7 5 7 9 7 3 2 2 3 3 4 5 6 7 7 8 8 9 9 9 8 8 8 8 6 5 5
16 15 11 11 11 11 12 11 11 11 10 10 8 7 6 6 6 8 7 5 5 4 2 0 1 2 4 5 6 6 6 7 7 8 8 8 9 9 9 9 8 7 7 7
Wind_Direction
316 317 314 314 316 318 317 317 312 327 331 13 28 6 358 351 351 346 348 345 341 336 331 330 327 323 319 318 321 323 319 314 310 308 306 303 300 299 297 295 293 293 291 287
307 307 294 290 294 281 289 297 299 309 321 19 12 0 350 343 335 336 344 339 335 332 331 328 324 318 319 319 322 321 314 311 309 307 305 303 301 298 295 295 294 292 289 287
304 306 300 300 305 274 317 321 321 316 334 8 354 344 335 328 331 350 344 336 335 334 328 323 320 321 323 321 320 318 314 311 311 310 308 305 305 304 300 297 294 290 286 283
293 301 296 306 255 279 311 319 306 304 357 6 343 344 359 38 27 353 340 339 336 329 325 324 325 325 326 321 320 319 317 316 315 313 309 306 304 300 297 295 293 289 285 282
294 295 298 307 237 208 323 312 322 3 7 344 345 329 81 54 11 353 349 338 330 325 324 324 323 329 326 320 320 319 319 319 317 313 309 306 303 301 299 297 294 290 286 282
275 288 294 305 109 111 324 338 56 24 352 341 335 322 352 13 360 356 342 332 327 326 325 323 329 329 323 322 323 323 323 319 314 309 306 303 299 299 299 297 294 293 289 286
267 278 291 71 110 279 314 53 5 349 345 333 345 325 326 335 346 343 334 330 330 331 327 327 328 328 323 323 326 327 323 317 312 309 306 300 298 301 301 299 298 295 292 287
273 280 297 115 291 329 352 340 324 331 326 332 324 314 319 331 337 336 334 333 333 329 327 327 330 330 324 327 330 327 321 317 314 312 309 308 307 305 303 300 300 301 300 297
300 314 151 255 283 301 298 282 296 306 323 325 312 312 320 327 335 334 331 333 330 330 327 328 333 333 328 331 331 326 321 319 316 312 308 305 305 307 307 306 307 310 313 313
293 288 282 284 292 286 270 255 264 289 298 295 297 307 315 324 328 329 332 328 331 329 328 329 334 334 334 334 331 324 321 319 316 313 311 312 311 308 309 313 320 325 325 327
275 275 276 275 282 278 261 239 237 254 265 270 282 293 307 318 326 329 324 327 328 327 327 328 332 331 336 337 332 325 321 318 317 316 313 314 312 309 308 324 330 313 322 329
296 302 292 290 280 260 238 236 239 245 256 265 275 289 301 312 321 318 320 326 327 328 328 327 328 330 336 336 332 325 320 319 318 317 317 317 317 318 310 283 249 255 275 298
293 292 288 287 281 261 234 236 237 229 231 244 257 270 289 299 306 316 323 326 327 328 326 324 328 332 336 337 330 323 318 315 315 315 317 318 322 321 321 286 231 252 268 280
291 282 274 276 280 278 263 252 242 231 223 223 233 245 266 286 304 317 322 321 324 326 322 328 332 332 337 334 325 320 318 315 316 317 318 318 320 320 326 334 329 290 226 245
296 281 272 266 258 262 259 250 241 235 230 224 221 228 250 280 299 309 313 320 325 321 327 331 328 331 337 331 324 320 318 317 320 318 315 317 320 325 335 338 334 329 300 205
296 291 282 276 273 274 267 254 244 241 240 237 229 225 243 270 287 299 312 324 326 326 325 322 325 335 335 326 323 320 317 314 315 314 315 319 321 330 338 340 341 340 339 347
308 307 307 301 290 282 271 257 247 240 242 240 224 214 225 255 279 296 316 326 325 316 312 325 339 339 326 321 325 321 318 317 317 317 325 325 327 336 341 340 340 341 350 7
330 325 321 314 307 298 287 270 252 240 234 231 218 208 220 246 275 299 311 316 313 307 323 353 354 328 317 325 330 320 315 317 322 325 326 328 331 330 330 331 334 340 336 327
358 347 337 326 315 301 294 287 272 252 223 193 193 213 228 246 262 281 296 306 301 303 346 352 338 311 323 340 339 316 317 321 325 328 328 329 328 329 334 339 345 351 346 341
15 7 357 345 336 328 316 307 298 274 172 169 201 223 237 250 262 273 287 290 294 339 343 336 318 319 333 340 334 316 317 323 329 332 332 336 339 337 341 344 351 356 356 347
10 7 3 357 350 342 335 324 306 269 202 196 205 222 234 243 254 263 271 282 308 83 327 295 286 343 342 331 310 311 324 331 332 332 334 336 335 336 342 340 340 352 359 345
357 354 351 348 344 338 332 322 302 272 233 211 210 218 225 230 236 243 244 248 190 116 307 310 8 11 336 318 309 325 333 337 337 335 336 334 332 335 341 341 341 358 9 353
338 335 331 329 325 319 314 307 294 273 245 225 220 222 227 228 232 245 254 198 155 128 281 345 38 336 319 309 323 338 339 343 342 337 335 331 330 334 341 343 345 358 4 356
322 318 316 312 307 302 296 290 285 275 258 234 229 223 222 228 228 228 219 145 135 145 265 126 166 299 295 303 341 351 349 347 345 339 335 333 335 338 346 347 348 360 7 13
309 308 305 300 297 292 288 282 276 264 257 249 239 228 225 225 228 229 175 147 150 172 218 171 194 255 290 344 360 0 355 352 342 332 334 335 338 340 344 349 354 351 352 6
299 296 295 291 292 293 293 291 288 284 272 257 245 236 230 223 208 190 176 177 169 176 222 203 202 248 332 0 8 10 3 353 347 346 345 341 343 344 345 346 347 351 354 10
291 290 289 293 304 311 317 317 315 313 309 302 287 261 229 209 192 180 170 174 166 179 203 200 37 20 13 17 19 20 16 6 357 350 348 346 347 346 345 344 350 358 7 17
Height
1480 1475 1475 1477 1477 1478 1483 1487 1493 1491 1489 1486 1489 1491 1493 1495 1496 1497 1497 1497 1496 1494 1491 1489 1486 1483 1480 1477 1473 1469 1465 1461 1457 1454 1450 1446 1442 1438 1435 1431 1429 1426 1423 1421
1485 1477 1474 1476 1474 1476 1479 1481 1484 1485 1487 1484 1488 1491 1493 1494 1494 1495 1495 1495 1493 1491 1488 1486 1483 1479 1476 1473 1469 1465 1461 1457 1453 1449 1444 1440 1437 1433 1429 1425 1422 1419 1416 1413
1493 1480 1478 1483 1474 1474 1477 1477 1481 1487 1486 1485 1488 1491 1491 1492 1492 1493 1494 1493 1491 1488 1486 1482 1479 1476 1472 1469 1465 1461 1457 1452 1448 1444 1439 1435 1431 1427 1423 1419 1415 1412 1408 1405
1491 1488 1500 1479 1467 1470 1476 1478 1478 1480 1482 1486 1488 1489 1490 1490 1492 1493 1492 1490 1488 1485 1482 1479 1476 1473 1469 1465 1461 1457 1452 1448 1443 1439 1434 1429 1425 1420 1416 1413 1409 1405 1401 1398
1494 1494 1486 1474 1469 1471 1478 1480 1476 1479 1484 1486 1487 1488 1490 1491 1491 1491 1490 1488 1485 1482 1479 1476 1472 1469 1465 1461 1457 1453 1448 1443 1438 1433 1428 1423 1419 1415 1410 1406 1402 1398 1394 1390
1491 1497 1497 1475 1466 1471 1477 1481 1481 1482 1485 1486 1486 1487 1487 1489 1489 1488 1487 1485 1482 1479 1476 1473 1469 1465 1461 1457 1453 1448 1443 1438 1433 1428 1423 1418 1413 1409 1405 1401 1396 1392 1388 1384
1488 1489 1478 1468 1470 1473 1483 1487 1483 1483 1485 1486 1486 1489 1489 1488 1487 1486 1484 1482 1479 1476 1473 1469 1466 1462 1457 1453 1449 1444 1438 1433 1428 1423 1418 1413 1409 1405 1400 1395 1391 1387 1382 1378
1480 1486 1485 1472 1472 1475 1480 1479 1480 1482 1483 1484 1485 1486 1486 1485 1484 1483 1481 1479 1476 1473 1470 1466 1462 1458 1454 1450 1445 1439 1434 1428 1423 1418 1414 1409 1405 1400 1396 1391 1387 1382 1377 1373
1473 1477 1473 1471 1471 1472 1474 1476 1479 1480 1481 1482 1483 1483 1483 1482 1481 1480 1478 1476 1473 1470 1466 1463 1459 1455 1451 1446 1441 1435 1429 1424 1419 1414 1409 1405 1401 1397 1392 1388 1383 1379 1374 1370
1469 1467 1467 1467 1467 1468 1471 1473 1476 1478 1479 1480 1480 1480 1480 1480 1479 1477 1475 1473 1470 1467 1463 1460 1456 1452 1447 1442 1437 1431 1426 1420 1415 1410 1406 1402 1398 1394 1390 1385 1381 1376 1372 1368
1465 1463 1463 1463 1464 1465 1468 1470 1472 1474 1476 1476 1477 1477 1477 1477 1476 1474 1472 1470 1467 1464 1460 1456 1452 1448 1444 1439 1433 1428 1422 1417 1412 1408 1404 1399 1395 1391 1387 1383 1379 1375 1370 1367
1461 1459 1460 1461 1462 1463 1464 1467 1469 1471 1472 1473 1474 1474 1474 1474 1473 1471 1469 1467 1464 1461 1457 1453 1449 1445 1440 1435 1430 1425 1419 1414 1410 1406 1402 1398 1393 1389 1385 1381 1377 1373 1369 1366
1456 1455 1456 1457 1457 1458 1460 1463 1464 1466 1468 1470 1471 1471 1471 1471 1470 1468 1466 1464 1461 1458 1454 1450 1446 1442 1437 1432 1427 1422 1417 1413 1408 1404 1400 1396 1391 1387 1383 1379 1375 1372 1369 1366
1453 1453 1453 1455 1456 1456 1457 1458 1460 1462 1464 1466 1467 1468 1468 1468 1467 1465 1463 1461 1458 1454 1451 1447 1443 1439 1434 1429 1424 1420 1415 1411 1407 1402 1398 1394 1390 1386 1382 1378 1375 1371 1368 1366
1450 1449 1450 1450 1452 1453 1453 1454 1456 1458 1460 1461 1463 1464 1464 1464 1463 1462 1460 1457 1455 1451 1448 1444 1440 1436 1431 1426 1421 1417 1413 1409 1405 1401 1397 1393 1389 1385 1381 1378 1374 1371 1368 1366
1448 1447 1446 1447 1448 1449 1449 1450 1451 1453 1455 1457 1458 1459 1460 1460 1460 1458 1457 1454 1451 1448 1445 1441 1437 1433 1428 1423 1419 1415 1411 1407 1403 1399 1396 1392 1388 1385 1381 1377 1374 1371 1369 1366
1447 1446 1445 1445 1445 1445 1445 1446 1447 1448 1450 1452 1453 1455 1456 1457 1456 1455 1453 1451 1448 1445 1442 1438 1434 1429 1425 1421 1417 1413 1409 1405 1401 1398 1395 1391 1388 1385 1381 1378 1375 1372 1370 1367
1447 1446 1446 1445 1444 1443 1442 1442 1442 1444 1445 1448 1450 1451 1452 1453 1452 1451 1450 1447 1445 1442 1440 1435 1431 1426 1422 1419 1415 1411 1407 1404 1400 1397 1394 1391 1388 1384 1381 1378 1375 1373 1370 1368
1447 1446 1445 1444 1443 1441 1440 1440 1439 1440 1442 1444 1446 1448 1449 1449 1449 1448 1446 1444 1441 1439 1436 1432 1427 1423 1420 1417 1413 1409 1406 1403 1400 1396 1393 1390 1387 1384 1382 1379 1376 1374 1371 1368
1447 1446 1444 1443 1442 1440 1439 1438 1438 1439 1440 1442 1444 1445 1446 1446 1445 1444 1442 1441 1439 1436 1432 1429 1424 1421 1418 1415 1411 1408 1405 1402 1399 1395 1393 1390 1387 1385 1382 1380 1377 1375 1372 1370
1449 1447 1445 1443 1442 1440 1439 1438 1438 1437 1437 1439 1440 1441 1442 1442 1441 1440 1439 1437 1435 1431 1429 1426 1422 1419 1416 1412 1409 1406 1404 1401 1398 1395 1392 1390 1388 1385 1383 1381 1378 1376 1374 1371
1450 1448 1446 1444 1442 1441 1439 1437 1436 1435 1434 1434 1434 1435 1435 1435 1434 1434 1433 1432 1430 1427 1426 1424 1420 1416 1413 1410 1407 1405 1403 1400 1397 1395 1392 1390 1388 1386 1384 1382 1380 1378 1375 1372
1451 1449 1446 1444 1441 1439 1437 1435 1433 1431 1429 1428 1428 1428 1428 1428 1427 1427 1428 1426 1425 1423 1421 1419 1416 1414 1410 1408 1406 1404 1401 1399 1396 1394 1392 1390 1388 1386 1385 1383 1381 1379 1377 1374
1448 1446 1443 1440 1438 1435 1432 1429 1427 1425 1423 1421 1421 1421 1421 1421 1421 1421 1421 1420 1420 1419 1418 1415 1413 1411 1408 1407 1405 1402 1399 1397 1395 1393 1391 1389 1388 1387 1385 1384 1382 1381 1379 1377
1444 1441 1438 1435 1431 1428 1425 1422 1419 1417 1415 1414 1413 1413 1413 1414 1414 1416 1415 1414 1414 1415 1414 1412 1410 1408 1407 1406 1403 1400 1398 1395 1394 1392 1390 1389 1388 1387 1386 1385 1384 1383 1381 1380
1438 1435 1432 1429 1426 1422 1419 1416 1413 1410 1408 1405 1404 1404 1405 1406 1406 1408 1409 1410 1410 1411 1411 1410 1409 1407 1407 1405 1402 1399 1396 1394 1393 1391 1390 1388 1387 1387 1386 1385 1385 1384 1383 1382
1432 1429 1426 1423 1420 1417 1414 1411 1408 1405 1403 1400 1398 1398 1398 1399 1400 1402 1404 1406 1408 1408 1409 1409 1408 1406 1405 1403 1400 1397 1395 1393 1391 1390 1389 1387 1386 1386 1385 1385 1385 1384 1384 1383